Regional Weather Roundup
Issued by NWS

Home | Current Version | Previous Version | Graphics & Text | Print | Product List | Glossary On
Versions: 1 2 3 4 5 6 7 8 9 10 11 12 13 14 15 16 17 18 19 20 21 22 23 24 25 26 27 28 29 30 31 32 33 34 35 36 37 38 39 40 41 42 43 44 45 46 47 48 49 50
000
ASUS45 KCYS 272110
RWRWY

WYOMING REGIONAL WEATHER ROUNDUP
NATIONAL WEATHER SERVICE CHEYENNE WY
300 PM MDT WED AUG 27 2014

NOTE:  "FAIR" INDICATES FEW OR NO CLOUDS BELOW 12,000 FEET
WITH NO SIGNIFICANT WEATHER AND/OR OBSTRUCTIONS TO VISIBILITY.

WYZ001-272200-
YELLOWSTONE NATIONAL PARK

CITY           SKY/WX    TMP DP  RH WIND       PRES   REMARKS
LK YELLOWSTONE   N/A     63  41  44 E6        30.34F
W YELLOWSTONE  NOT AVBL

$$
WYZ002>013-054>058-071-098>099-272200-
NORTHERN WYOMING

CITY           SKY/WX    TMP DP  RH WIND       PRES   REMARKS
JACKSON        MOSUNNY   72  37  28 S5        30.24F
CODY           PTSUNNY   75  46  35 N6        30.14S
GREYBULL       CLOUDY    75  51  43 S8        30.09S
WORLAND        CLOUDY    74  49  41 CALM      30.10F
SHERIDAN       PTSUNNY   83  48  29 NW6       30.07F
BUFFALO        PTSUNNY   76  51  41 S8        30.14F
GILLETTE       PTSUNNY   79  53  40 CALM      30.09F
HULETT         FAIR      75  57  53 MISG      30.12
NEWCASTLE      FAIR      70  55  60 S8        30.13

$$
WYZ014>020-022>026-101>103-272200-
CENTRAL WYOMING

CITY           SKY/WX    TMP DP  RH WIND       PRES   REMARKS
BIG PINEY      CLOUDY    57  48  72 S5        30.31F
PINEDALE       CLOUDY    54  46  76 SE5       30.32F
DUBOIS         CLOUDY    61  43  51 SE14      30.27S
LANDER         CLOUDY    57  52  83 S8        30.23S
RIVERTON       CLOUDY    57  54  89 SW14      30.22F
CASPER         CLOUDY    63  55  75 CALM      30.18F
DOUGLAS        LGT RAIN  62  59  90 NW10      30.16F FOG

$$
WYZ021-027>030-104>119-272200-
SOUTHERN WYOMING

CITY           SKY/WX    TMP DP  RH WIND       PRES   REMARKS
EVANSTON       PTSUNNY   59  45  59 VRB3      30.34F
KEMMERER       CLOUDY    57  46  67 SW6       30.33F
FORT BRIDGER   CLOUDY    56  51  82 CALM      30.36S
ROCK SPRINGS   LGT RAIN  55  47  74 N8        30.30F
DIXON          FAIR      57  51  81 W6        30.30F
RAWLINS        CLOUDY    59  48  67 W10       30.26F
SARATOGA       CLOUDY    59  48  67 NW10      30.28F
LARAMIE        PTSUNNY   63  46  54 NW9       30.23F
CHEYENNE       PTSUNNY   67  52  58 N9        30.19F
TORRINGTON     LGT RAIN  61  60  97 E3        30.11F
PINE BLUFFS    CLOUDY    63  55  77 NW10      30.16F

$$


USA.gov is the U.S. government's official web portal to all federal, state and local government web resources and services.